User: anonymous   Login
Location: Unspecified
(0.0000°N, 0.0000°E)
Time: 05:38:25
(UTC+01:00)
Language:

ATLAS 3B CENTAUR R/B - Orbit

View from above orbital plane
View from above orbital plane
View from above satellite
View from above satellite

Ground track
Ground track

The orbit data is extracted from the following two-line orbital elements,

1 28118U 03057B   14352.46884757  .00098104  00000-0  22072-2 0  9536
2 28118 028.1377 116.9930 3751684 346.0551 039.5713 07.98298943210052
Epoch (UTC): 18 December 2014 11:15:08
Eccentricity: 0.3751684
inclination: 28.1377°
perigee height: 229 km
apogee height: 8164 km
right ascension of ascending node: 116.9930°
argument of perigee: 346.0551°
revolutions per day: 7.98298943
mean anomaly at epoch: 39.5713°
orbit number at epoch: 21005

The dashed part of the orbit path shows where the satellite is in the earth's shadow,  

DLR